Location: Unspecified
(0.0000°N, 0.0000°E)
Time: 13:58:05
(UTC+00:00)

Altair - Pass Details

Date: 25 November 2019
Orbit: 1502 x 1682 km, 47.2° (Epoch: 08 December)

Event Time Altitude Azimuth Distance (km) Brightness Sun altitude
Rises 07:54:06 0° 351° (N) 4,678 9.8 29.5°
Reaches altitude 10° 07:58:50 10° 12° (NNE) 3,730 9.5 30.6°
Maximum altitude 08:04:09 16° 47° (NE) 3,307 9.7 31.8°
Drops below altitude 10° 08:09:32 10° 82° (E) 3,817 10.5 33.0°
Sets 08:14:24 0° 101° (ESE) 4,842 11.1 34.2°
